Home   Weather   Gladbeck   Past weeks

Flag for Germany Past Weather in Gladbeck, North Rhine-Westphalia, Germany — Yesterday and Last 2 Weeks

Now
39 °F

Partly cloudy.


Feels Like: 31 °F
Forecast: 35 / 45 °F
Wind: 15 mph from West

Location: Duesseldorf

Current Time: Feb 24, 2017 at 7:42:19 am

Latest Report: Feb 24, 2017 at 6:50 am


Visibility: N/A

Pressure: 29.77 "Hg

Humidity: 81%

Dew Point: 34 °F

Location of GladbeckLocation

Past Weather in Gladbeck — Graph

°F

Gladbeck Temperature Yesterday

Maximum temperature yesterday: 50 °F (at 12:20 am)
Minimum temperature yesterday: 43 °F (at 7:50 pm)
Average temperature yesterday: 48 °F

High & Low Weather Summary for the Past Weeks

 TemperatureHumidityPressure
High61 °F (Feb 15, 3:50 pm)100% (Feb 11, 7:50 pm)30.51 "Hg (Feb 11, 7:50 pm)
Low27 °F (Feb 13, 5:50 am)38% (Feb 14, 3:50 pm)29.24 "Hg (Feb 23, 4:20 pm)
Average43 °F79%30.15 "Hg
* Reported Feb 9 6:20 am — Feb 24 6:20 am, Gladbeck, Weather by CustomWeather, © 2017

Note: Actual official high and low records may vary slightly from our data, if they occured in-between our weather recording intervals... More about our weather records

Advertising

Gladbeck Weather History for the Previous 24 Hours

Scroll right to see more
 ConditionsComfort  
Time TempWeatherWind HumidityBarometerVisibility
6:20 am
Fri, Feb 24
37 °FPassing clouds.9 mph87%29.74 "HgN/A
5:50 am37 °FPartly cloudy.8 mph87%29.74 "HgN/A
5:20 am37 °FPassing clouds.13 mph93%29.71 "HgN/A
4:50 am39 °FLight rain. Passing clouds.15 mph81%29.68 "HgN/A
4:20 am39 °FPassing clouds.13 mph81%29.68 "HgN/A
3:50 am41 °FPassing clouds.15 mph76%29.65 "HgN/A
3:20 am41 °FPartly cloudy.15 mph81%29.62 "HgN/A
2:50 am41 °FLight rain. Partly cloudy.18 mph81%29.62 "HgN/A
2:20 am41 °FQuite cool.21 mph81%29.59 "HgN/A
1:50 am41 °FLight rain. Mostly cloudy.26 mph81%29.56 "HgN/A
1:20 am39 °FLight rain. Mostly cloudy.23 mph87%29.50 "HgN/A
12:50 am41 °FLight rain. Overcast.37 mph81%29.45 "HgN/A
12:20 am43 °FLight rain. Passing clouds.36 mph76%29.39 "HgN/A
11:50 pm
Thu, Feb 23
43 °FLight rain. Passing clouds.32 mph81%29.36 "HgN/A
11:20 pm43 °FSprinkles. Passing clouds.29 mph76%29.36 "HgN/A
10:50 pm45 °FPassing clouds.26 mph71%29.33 "HgN/A
10:20 pm45 °FSprinkles. Passing clouds.31 mph71%29.33 "HgN/A
9:50 pm45 °FPartly cloudy.26 mph76%29.33 "HgN/A
9:20 pm46 °FSprinkles. Partly cloudy.30 mph66%29.30 "HgN/A
8:50 pm46 °FPartly cloudy.30 mph66%29.30 "HgN/A
8:20 pm46 °FPartly cloudy.28 mph66%29.30 "HgN/A
7:50 pm43 °FLight rain. Partly cloudy.28 mph81%29.30 "HgN/A
7:20 pm48 °FLight rain. Partly cloudy.32 mph66%29.27 "HgN/A
6:50 pm48 °FSprinkles. Partly cloudy.31 mph66%29.27 "HgN/A
6:20 pm46 °FSprinkles. Partly cloudy.31 mph71%29.27 "HgN/A
5:50 pm50 °FSprinkles. Broken clouds.32 mph58%29.27 "HgN/A
5:20 pm50 °FSprinkles. Partly sunny.30 mph62%29.24 "HgN/A
4:50 pm50 °FSprinkles. Scattered clouds.35 mph67%29.24 "HgN/A
4:20 pm50 °FSprinkles. Broken clouds.32 mph67%29.24 "HgN/A
3:50 pm50 °FScattered showers. Scattered clouds.31 mph71%29.27 "HgN/A
3:20 pm50 °FSprinkles. Broken clouds.38 mph71%29.27 "HgN/A
2:50 pm50 °FSprinkles. Partly sunny.31 mph76%29.30 "HgN/A
2:20 pm50 °FPartly sunny.28 mph76%29.30 "HgN/A
1:50 pm48 °FLight rain. Partly sunny.28 mph82%29.33 "HgN/A
1:20 pm48 °FPartly sunny.26 mph82%29.36 "HgN/A
12:50 pm48 °FLight rain. Partly sunny.24 mph82%29.42 "HgN/A
12:20 pm48 °FLight rain. Partly sunny.23 mph82%29.45 "HgN/A
11:50 am48 °FLight rain. Partly sunny.28 mph82%29.45 "HgN/A
11:20 am48 °FPartly sunny.24 mph82%29.47 "HgN/A
10:50 am48 °FDrizzle. Partly sunny.22 mph87%29.47 "HgN/A
10:20 am48 °FPartly sunny.23 mph87%29.50 "HgN/A
9:50 am48 °FPartly sunny.22 mph87%29.50 "HgN/A
9:20 am48 °FDrizzle. Fog.18 mph87%29.53 "Hg1 mi
8:50 am48 °FLight rain. Partly sunny.21 mph87%29.56 "Hg5 mi
8:20 am48 °FPartly sunny.23 mph82%29.56 "HgN/A
7:50 am48 °FPartly sunny.23 mph87%29.56 "HgN/A
7:20 am48 °FPassing clouds.23 mph87%29.59 "Hg5 mi
Weather by CustomWeather, © 2017

See weather overviewHow to use our weather pages